[[{"header":{"parameterUnit":"m.s-1","parameterCategory":1,"la1":30.2991,"la2":30.254,"lo1":-89.0895,"lo2":-89.0444,"dy":0.0017,"dx":0.0017,"nx":28,"ny":28,"refTime":"2025-03-28T09:00:00:Z","depth":0,"parameterNumber":2,"parameterNumberName":"U-component_of_WINDS"},"data":[0,0,0,0,0,0,0,0,0,0,0,0,0,0,0,0,0,0,0,0,0,0,0,0,0,0,0,0,0,0,0,0,0,0,0,0,0,0,0,0,0,0,0,0,0,0,0,0,0,0,0,0,0,0,0,0,0,0,-3.717,-3.7172,0,-3.7324,-3.7326,-3.7327,-3.7372,-3.7371,-3.7371,-3.737,-3.7525,-3.753,-3.7535,0,0,0,0,0,0,0,0,0,0,0,0,0,-3.6914,-3.6918,-3.717,-3.7172,-3.7174,-3.7324,-3.7326,-3.7328,-3.7372,-3.7371,-3.737,-3.737,-3.7524,-3.753,-3.7536,0,0,0,0,0,0,0,0,0,0,0,0,0,-3.7042,-3.692,-3.717,-3.7214,-3.722,-3.7323,-3.7326,-3.7328,-3.7373,-3.7371,-3.737,-3.7369,-3.7522,-3.7529,-3.7536,-3.7606,0,0,-3.7559,-3.7562,0,0,0,0,0,0,0,0,-3.7035,-3.7051,-3.7206,-3.7211,-3.7218,-3.7328,-3.7293,-3.7421,-3.7373,-3.7315,-3.737,-3.7368,-3.7461,-3.7473,-3.7504,-3.7613,-3.762,-3.7559,-3.7564,-3.7567,-3.7569,0,0,0,0,0,0,0,-3.7026,-3.7045,-3.7231,-3.7208,-3.7215,-3.7226,-3.7243,-3.7317,-3.7392,-3.732,-3.7323,-3.7341,-3.7464,-3.7497,-3.7508,-3.7622,-3.7559,-3.7566,-3.757,-3.7573,-3.7796,-3.7798,0,0,0,0,0,0,-3.7009,-3.7037,-3.7226,-3.7236,-3.7121,-3.7232,-3.7251,-3.7294,-3.7392,-3.7406,-3.7342,-3.7342,-3.7485,-3.75,-3.7514,-3.7602,-3.7567,-3.7574,-3.7578,-3.7795,-3.7797,-3.7798,0,0,0,0,0,0,-3.7004,-3.7026,-3.722,-3.7137,-3.7163,-3.7237,-3.7285,-3.7297,-3.7331,-3.7409,-3.7422,-3.7362,-3.7485,-3.7504,-3.7583,-3.7608,-3.7577,-3.7584,-3.7793,-3.7795,-3.7797,-3.7778,0,0,0,0,0,0,-3.6996,-3.7023,-3.7051,-3.7138,-3.7167,-3.7286,-3.7287,-3.7301,-3.7344,-3.7346,-3.7431,-3.7444,-3.7485,-3.7572,-3.759,-3.7617,-3.759,-3.7791,-3.7794,-3.7797,-3.7776,-3.7779,-3.7781,0,0,0,0,0,-3.6987,-3.7039,-3.7052,-3.7075,-3.7203,-3.7288,-3.7305,-3.7351,-3.7346,-3.7373,-3.7424,-3.7442,-3.7602,-3.758,-3.7601,-3.763,-3.779,-3.7793,-3.7797,-3.7775,-3.7778,-3.7781,0,0,0,0,0,0,-3.6952,-3.7051,-3.7067,-3.7148,-3.7209,-3.7295,-3.7332,-3.7353,-3.7416,-3.7416,-3.7471,-3.7489,-3.7565,-3.7606,-3.7579,-3.7703,-3.7697,-3.7704,-3.7673,-3.7677,-3.7679,-3.7667,-3.7596,0,0,0,0,0,-3.6954,-3.7015,-3.7098,-3.7162,-3.7192,-3.7257,-3.7295,-3.7326,-3.7391,-3.7417,-3.7473,-3.7535,-3.7599,-3.7641,-3.7704,-3.7783,-3.7802,-3.7814,-3.7816,-3.7818,-3.7823,-3.7868,-3.7874,-3.781,-3.781,-3.7809,0,0,-3.6958,-3.702,-3.7055,-3.7157,-3.7208,-3.7269,-3.7278,-3.7343,-3.7388,-3.7427,-3.7505,-3.7548,-3.7621,-3.77,-3.7738,-3.7737,-3.7846,-3.7822,-3.7823,-3.7828,-3.7872,-3.7878,-3.7883,-3.7812,-3.7811,-3.7811,0,0,-3.6997,-3.7051,-3.711,-3.7161,-3.7238,-3.7281,-3.7295,-3.7378,-3.7408,-3.7488,-3.7518,-3.7574,-3.7684,-3.7734,-3.7774,-3.7834,-3.7853,-3.7853,-3.7865,-3.7907,-3.7912,-3.7917,-3.7937,-3.7944,-3.7859,-3.7859,-3.7859,0,-3.6993,-3.7087,-3.7137,-3.7201,-3.7244,-3.7283,-3.7343,-3.739,-3.7483,-3.7512,-3.751,-3.7649,-3.7701,-3.7793,-3.7807,-3.7839,-3.7856,-3.7843,-3.7908,-3.7913,-3.7918,-3.7938,-3.7946,-3.7858,-3.7858,-3.7858,-3.7858,0,-3.7077,-3.7142,-3.718,-3.7271,-3.7319,-3.738,-3.7439,-3.7482,-3.7509,-3.7552,-3.7632,-3.7696,-3.7773,-3.7798,-3.7824,-3.7893,-3.789,-3.7897,-3.7891,-3.7923,-3.7942,-3.7951,-3.7857,-3.7858,-3.7858,-3.7858,0,0,-3.7097,-3.7215,-3.7228,-3.727,-3.7358,-3.7409,-3.7472,-3.7548,-3.7583,-3.7647,-3.7701,-3.7794,-3.7801,-3.7847,-3.788,-3.7917,-3.7959,-3.792,-3.7923,-3.7924,-3.8038,-3.8031,-3.8039,-3.7973,-3.7975,-3.7976,-3.8032,0,-3.7146,-3.7261,-3.7308,-3.74,-3.746,-3.7499,-3.7554,-3.7613,-3.7656,-3.7713,-3.7759,-3.7824,-3.7829,-3.7857,-3.7896,-3.7946,-3.7983,-3.7943,-3.8023,-3.8025,-3.8002,-3.805,-3.8042,-3.8091,-3.804,-3.8041,-3.8042,0,-3.7219,-3.7284,-3.7382,-3.7463,-3.749,-3.7539,-3.7613,-3.7667,-3.7736,-3.7764,-3.7815,-3.7846,-3.7913,-3.7905,-3.7998,-3.7969,-3.8005,-3.8035,-3.8038,-3.8046,-3.8034,-3.8057,-3.8108,-3.8115,-3.8055,-3.8054,-3.8053,0,-3.7222,-3.7334,-3.7407,-3.7442,-3.7539,-3.7572,-3.7614,-3.7682,-3.7725,-3.7789,-3.7817,-3.7889,-3.7927,-3.7982,-3.8031,-3.802,-3.8119,-3.8115,-3.8143,-3.8142,-3.8161,-3.8159,-3.8217,-3.8186,-3.8186,-3.8186,-3.8186,0,-3.7272,-3.733,-3.741,-3.7455,-3.7521,-3.7576,-3.764,-3.7684,-3.7744,-3.7798,-3.7836,-3.7885,-3.7949,-3.8006,-3.8045,-3.8116,-3.8133,-3.8157,-3.8167,-3.8153,-3.815,-3.8176,-3.8174,-3.8188,-3.8188,-3.8187,-3.8187,0,-3.7286,-3.7342,-3.7424,-3.751,-3.7533,-3.7578,-3.7651,-3.7696,-3.774,-3.7808,-3.7827,-3.7896,-3.7966,-3.8021,-3.8112,-3.8139,-3.8212,-3.8224,-3.8189,-3.8194,-3.8219,-3.8215,-3.8295,-3.8308,-3.8269,-3.8269,-3.827,0,-3.7313,-3.7359,-3.745,-3.7489,-3.753,-3.7593,-3.7637,-3.7692,-3.7736,-3.7819,-3.7853,-3.7926,-3.7987,-3.8097,-3.8155,-3.8225,-3.8237,-3.826,-3.8248,-3.8233,-3.8236,-3.8232,-3.8237,-3.8261,-3.8261,-3.8261,-3.8261,0,-3.7355,-3.7381,-3.7443,-3.7516,-3.7567,-3.7627,-3.7687,-3.7717,-3.7783,-3.7831,-3.7903,-3.795,-3.8043,-3.8115,-3.8191,-3.8234,-3.8258,-3.8265,-3.8275,-3.8261,-3.8239,-3.825,-3.8192,-3.8263,-3.8262,-3.8262,-3.8262,-3.8262,-3.7377,-3.7419,-3.7489,-3.7557,-3.7609,-3.7664,-3.771,-3.7761,-3.7822,-3.7902,-3.7931,-3.8005,-3.8073,-3.8178,-3.8222,-3.828,-3.8282,-3.8296,-3.83,-3.8303,-3.8301,-3.8231,-3.8294,-3.8294,-3.8294,-3.8294,-3.8294,0,-3.742,-3.7467,-3.7529,-3.7612,-3.7666,-3.7686,-3.7753,-3.7797,-3.7861,-3.7923,-3.7982,-3.8065,-3.8135,-3.8199,-3.8271,-3.8306,-3.8319,-3.8323,-3.832,-3.833,-3.8295,-3.8279,-3.8311,-3.8311,-3.8311,-3.8311,-3.8311,-3.8311,-3.7448,-3.7521,-3.7555,-3.7653,-3.77,-3.7773,-3.781,-3.7861,-3.7911,-3.8001,-3.806,-3.8101,-3.8164,-3.8241,-3.8306,-3.8323,-3.8347,-3.8348,-3.8368,-3.8334,-3.8332,-3.833,-3.8314,-3.8353,-3.8353,-3.8397,-3.8398,-3.8398]},{"header":{"parameterUnit":"m.s-1","parameterCategory":1,"la1":30.2991,"la2":30.254,"lo1":-89.0895,"lo2":-89.0444,"dy":0.0017,"dx":0.0017,"nx":28,"ny":28,"refTime":"2025-03-28T09:00:00:Z","depth":0,"parameterNumber":3,"parameterNumberName":"V-component_of_WINDS"},"data":[0,0,0,0,0,0,0,0,0,0,0,0,0,0,0,0,0,0,0,0,0,0,0,0,0,0,0,0,0,0,0,0,0,0,0,0,0,0,0,0,0,0,0,0,0,0,0,0,0,0,0,0,0,0,0,0,0,0,6.0493,6.0495,0,6.0621,6.0623,6.0624,6.0607,6.0604,6.0602,6.06,6.0727,6.0732,6.0738,0,0,0,0,0,0,0,0,0,0,0,0,0,6.0231,6.0236,6.0493,6.0495,6.0497,6.0621,6.0623,6.0625,6.0607,6.0604,6.0602,6.0599,6.0725,6.0732,6.0738,0,0,0,0,0,0,0,0,0,0,0,0,0,6.035,6.0238,6.0493,6.0503,6.0505,6.0621,6.0623,6.0625,6.0607,6.0604,6.0601,6.0598,6.0723,6.0731,6.0739,6.0852,0,0,6.0763,6.0767,0,0,0,0,0,0,0,0,6.0344,6.036,6.05,6.0502,6.0505,6.0595,6.0577,6.0701,6.0608,6.0568,6.06,6.0597,6.0685,6.0696,6.0727,6.0858,6.0863,6.0764,6.0769,6.0772,6.0775,0,0,0,0,0,0,0,6.0336,6.0355,6.0544,6.0502,6.0505,6.05,6.0513,6.06,6.0643,6.0572,6.0571,6.0586,6.0686,6.0719,6.073,6.0865,6.0764,6.0771,6.0776,6.0779,6.1097,6.11,0,0,0,0,0,0,6.0325,6.0348,6.054,6.0548,6.0415,6.0507,6.0522,6.0569,6.0642,6.065,6.0589,6.0585,6.0707,6.0721,6.0734,6.0873,6.0772,6.078,6.0785,6.1093,6.1097,6.1101,0,0,0,0,0,0,6.032,6.0342,6.0535,6.0448,6.0472,6.0515,6.0568,6.0573,6.0607,6.0655,6.0662,6.0615,6.0705,6.0723,6.0824,6.0877,6.0784,6.0791,6.1089,6.1094,6.1099,6.115,0,0,0,0,0,0,6.0312,6.0341,6.0384,6.0449,6.0476,6.0623,6.0571,6.0578,6.0621,6.0617,6.0682,6.0689,6.0704,6.0812,6.0832,6.0886,6.0797,6.1084,6.1091,6.1098,6.1144,6.1156,6.1167,0,0,0,0,0,6.0303,6.0392,6.0387,6.041,6.0532,6.0626,6.0641,6.0658,6.0625,6.067,6.0701,6.0687,6.0868,6.0822,6.0844,6.0902,6.1081,6.1089,6.1097,6.1138,6.1154,6.1167,0,0,0,0,0,0,6.0331,6.0401,6.0395,6.0508,6.0562,6.0623,6.0679,6.0673,6.0736,6.0729,6.0746,6.0761,6.0863,6.0892,6.084,6.1016,6.097,6.0983,6.0993,6.1009,6.102,6.1011,6.0804,0,0,0,0,0,6.0351,6.0422,6.0478,6.0572,6.06,6.0635,6.0676,6.0684,6.0739,6.0761,6.08,6.0853,6.0922,6.0967,6.1032,6.1148,6.1162,6.1198,6.121,6.122,6.1231,6.1296,6.1313,6.1128,6.1128,6.1128,0,0,6.0391,6.0438,6.0482,6.0579,6.0621,6.0694,6.0654,6.0732,6.0786,6.0773,6.0871,6.0901,6.0961,6.107,6.112,6.1098,6.1285,6.123,6.1237,6.1243,6.1306,6.1323,6.1339,6.1134,6.1133,6.1132,0,0,6.0503,6.0545,6.063,6.0673,6.0738,6.0762,6.0782,6.0845,6.0865,6.0964,6.0956,6.102,6.1138,6.1182,6.1219,6.135,6.134,6.1371,6.1433,6.1495,6.151,6.1523,6.1571,6.1588,6.1382,6.1382,6.1382,0,6.0545,6.0656,6.0673,6.0753,6.0797,6.079,6.0876,6.0917,6.0999,6.1029,6.1004,6.1153,6.1193,6.1313,6.1345,6.1375,6.1399,6.1364,6.1507,6.152,6.1532,6.1578,6.1596,6.1385,6.1385,6.1384,6.1384,0,6.0705,6.0782,6.0841,6.0924,6.0974,6.1056,6.1086,6.1134,6.1139,6.1164,6.1266,6.1314,6.139,6.1419,6.1423,6.154,6.1525,6.1503,6.1457,6.1553,6.1597,6.1614,6.139,6.1389,6.1388,6.1387,0,0,6.0837,6.093,6.0952,6.099,6.1062,6.1121,6.1203,6.128,6.1322,6.1379,6.1449,6.155,6.1531,6.1573,6.1582,6.1638,6.174,6.1609,6.1611,6.1633,6.1874,6.1891,6.1911,6.1734,6.1737,6.174,6.1869,0,6.0957,6.1104,6.1123,6.1253,6.1325,6.132,6.1392,6.1444,6.147,6.1534,6.1563,6.1635,6.1603,6.163,6.1684,6.1716,6.1789,6.1707,6.1799,6.1802,6.1785,6.1933,6.1951,6.207,6.1886,6.1889,6.1891,0,6.1116,6.1181,6.1319,6.1383,6.1414,6.1478,6.1551,6.1612,6.1671,6.1686,6.1735,6.1738,6.1823,6.1773,6.189,6.1834,6.1873,6.1894,6.1899,6.1909,6.1853,6.1948,6.2109,6.2127,6.1917,6.1915,6.1913,0,6.1201,6.1322,6.1421,6.1453,6.153,6.1576,6.161,6.1665,6.1711,6.1774,6.1804,6.1875,6.1914,6.1969,6.1991,6.1952,6.2107,6.2059,6.2123,6.2122,6.2156,6.2154,6.2326,6.2179,6.2179,6.2178,6.2178,0,6.1333,6.1418,6.146,6.1521,6.1616,6.1637,6.173,6.1762,6.1812,6.1879,6.1878,6.194,6.1965,6.2031,6.2048,6.2144,6.2161,6.2176,6.2179,6.2176,6.2175,6.2202,6.2195,6.2183,6.2182,6.2181,6.218,0,6.1444,6.1475,6.1583,6.1648,6.1666,6.1734,6.1789,6.1848,6.1874,6.1959,6.1979,6.202,6.2099,6.2126,6.222,6.2231,6.2343,6.2338,6.2324,6.2325,6.2387,6.2382,6.2585,6.2613,6.2446,6.2448,6.2449,0,6.1527,6.1593,6.1666,6.1711,6.1747,6.182,6.1867,6.189,6.1939,6.2012,6.2062,6.214,6.2204,6.2329,6.2367,6.2439,6.2437,6.2504,6.2448,6.2444,6.244,6.2437,6.2444,6.2514,6.2516,6.2517,6.2518,0,6.1672,6.1685,6.1753,6.1828,6.1885,6.1944,6.2002,6.2039,6.207,6.2125,6.2206,6.2256,6.2353,6.2431,6.2506,6.2539,6.2535,6.2536,6.2555,6.2553,6.2542,6.255,6.2353,6.2531,6.253,6.2529,6.2528,6.2528,6.1772,6.1831,6.1892,6.1969,6.2015,6.207,6.2129,6.2164,6.2232,6.2315,6.2323,6.2411,6.2469,6.2569,6.2606,6.2675,6.2656,6.2683,6.269,6.2697,6.2702,6.2531,6.2688,6.2688,6.2687,6.2687,6.2687,0,6.1918,6.1958,6.2028,6.211,6.2171,6.2163,6.2226,6.2277,6.2355,6.241,6.2474,6.2568,6.2643,6.2688,6.2764,6.281,6.281,6.2829,6.2827,6.2835,6.2714,6.2691,6.2828,6.2828,6.2828,6.2828,6.2828,6.2828,6.2001,6.2101,6.2121,6.2244,6.2283,6.237,6.2408,6.2458,6.2502,6.2608,6.2672,6.27,6.2752,6.2832,6.2901,6.2912,6.294,6.2962,6.2971,6.2858,6.2843,6.2829,6.2808,6.2968,6.2968,6.3087,6.3088,6.3089]}]]